Springfield, MO

5:38 AM CDT on May 28, 2018 (GMT -0500)
Springfield-Branson Regional

Weather History for KSGF - January, 2012

Change the Weather History Date:

Saturday, January 14, 2012

  Actual Average Record
Temperature  
Mean Temperature 33 °F 32 °F  
Max Temperature 44 °F 43 °F 72 °F (1928)
Min Temperature 22 °F 22 °F -12 °F (1979)
Degree Days  
Heating Degree Days 32 33  
Month to date heating degree days 400 459  
Since 1 July heating degree days 2077 2269  
Cooling Degree Days 0 0  
Month to date cooling degree days 0 0  
Year to date cooling degree days 0 0  
Moisture  
Dew Point 20 °F    
Average Humidity 69    
Maximum Humidity 88    
Minimum Humidity 49    
Precipitation  
Precipitation 0.00 in 0.08 in 1.08 in (1937)
Month to date precipitation 0.01 1.18  
Year to date precipitation 0.01 1.18  
Snow  
Snow 0.00 in - - ()
Month to date snowfall 0.7  
Since 1 July snowfall 1.1  
Snow Depth 0.00 in    
Sea Level Pressure  
Sea Level Pressure 30.15 in    
Wind  
Wind Speed 11 mph (WSW)    
Max Wind Speed 25 mph    
Max Gust Speed 35 mph    
Visibility 10 miles    
Events      
T = Trace of Precipitation, MM = Missing Value Source: NWS Daily Summary

Daily Weather History Graph

Daily Weather History Graph

Search for Another Location

Airport or City:

Astronomy

Jan. 14, 2012 Rise Set
Actual Time 7:26 AM CST 5:18 PM CST
Civil Twilight 6:58 AM CST 5:46 PM CST
Nautical Twilight 6:26 AM CST 6:19 PM CST
Astronomical Twilight 5:54 AM CST 6:50 PM CST
Moon 11:30 PM CST (1/14) 10:21 AM CST (1/14)
Length of Visible Light 10h 48m
Length of Day
9h 51m
Waning Gibbous, 68% of the Moon is Illuminated
Jan 14
Waning Gibbous
Jan 16
Last Quarter
Jan 23
New
Jan 30
First Quarter
Feb 7
Full

Hourly Weather History & Observations

Time (CST) Temp. Windchill Dew Point Humidity Pressure Visibility Wind Dir Wind Speed Gust Speed Precip Events Conditions
12:52 AM 24.1 °F 13.7 °F 10.9 °F 57% 30.09 in 10.0 mi SSE 10.4 mph - N/A   Clear
1:52 AM 26.1 °F 15.0 °F 12.0 °F 55% 30.05 in 10.0 mi South 12.7 mph - N/A   Clear
2:52 AM 26.1 °F 15.6 °F 12.9 °F 58% 30.04 in 10.0 mi South 11.5 mph - N/A   Clear
3:52 AM 26.1 °F 15.0 °F 14.0 °F 60% 30.00 in 10.0 mi South 12.7 mph - N/A   Clear
4:52 AM 28.0 °F 18.1 °F 17.1 °F 63% 29.97 in 10.0 mi South 11.5 mph - N/A   Scattered Clouds
5:52 AM 35.1 °F 26.9 °F 21.0 °F 57% 29.97 in 10.0 mi WSW 11.5 mph 18.4 mph N/A   Mostly Cloudy
6:52 AM 36.0 °F 26.0 °F 19.9 °F 52% 30.01 in 10.0 mi West 17.3 mph 25.3 mph N/A   Clear
7:52 AM 35.1 °F 25.2 °F 19.9 °F 54% 30.04 in 10.0 mi West 16.1 mph 25.3 mph N/A   Clear
8:52 AM 37.0 °F 28.1 °F 21.0 °F 52% 30.06 in 10.0 mi West 15.0 mph - N/A   Clear
9:52 AM 39.0 °F 29.0 °F 23.0 °F 53% 30.09 in 10.0 mi West 20.7 mph 31.1 mph N/A   Clear
10:52 AM 41.0 °F 32.5 °F 25.0 °F 53% 30.12 in 10.0 mi NW 17.3 mph 34.5 mph N/A   Clear
11:52 AM 42.1 °F 32.8 °F 26.1 °F 53% 30.14 in 10.0 mi West 21.9 mph 29.9 mph N/A   Clear
12:52 PM 43.0 °F 36.0 °F 25.0 °F 49% 30.16 in 10.0 mi WNW 13.8 mph 21.9 mph N/A   Clear
1:52 PM 42.1 °F 34.5 °F 26.1 °F 53% 30.17 in 10.0 mi WNW 15.0 mph 24.2 mph N/A   Clear
2:52 PM 42.1 °F 33.6 °F 26.1 °F 53% 30.19 in 10.0 mi NW 18.4 mph 23.0 mph N/A   Partly Cloudy
3:52 PM 42.1 °F 36.1 °F 25.0 °F 51% 30.22 in 10.0 mi WNW 10.4 mph - N/A   Partly Cloudy
4:52 PM 39.9 °F 34.5 °F 25.0 °F 55% 30.23 in 10.0 mi NW 8.1 mph - N/A   Clear
5:52 PM 35.1 °F 30.1 °F 24.1 °F 64% 30.25 in 10.0 mi NNW 5.8 mph - N/A   Clear
6:52 PM 28.9 °F - 21.0 °F 72% 30.26 in 10.0 mi Calm Calm - N/A   Clear
7:52 PM 25.0 °F - 19.0 °F 78% 30.29 in 10.0 mi Calm Calm - N/A   Clear
8:52 PM 23.0 °F - 19.0 °F 85% 30.30 in 10.0 mi Calm Calm - N/A   Clear
9:52 PM 23.0 °F - 18.0 °F 81% 30.30 in 10.0 mi Calm Calm - N/A   Clear
10:52 PM 23.0 °F 17.0 °F 19.9 °F 88% 30.30 in 10.0 mi SSE 4.6 mph - N/A   Clear
11:52 PM 24.1 °F 16.0 °F 19.9 °F 84% 30.29 in 10.0 mi SSE 6.9 mph - N/A   Clear